Terminal Aerodrome Forecast
Issued by NWS Grand Junction, CO

Home | Current Version | Previous Version | Text Only | Print | Product List | Glossary On
Versions: 1 2 3 4 5 6 7 8 9 10 11 12 13 14 15 16 17 18 19 20 21 22 23 24 25 26 27 28 29 30 31 32 33 34 35 36 37 38 39
000
FTUS45 KGJT 280521
TAFGJT
TAF
KGJT 280521Z 2806/2906 10005KT P6SM BKN120 BKN200
     FM281600 25008KT P6SM OVC060
     FM282000 29008KT P6SM VCSH OVC060
     FM290300 07004KT P6SM VCSH OVC050=

USA.gov is the U.S. government's official web portal to all federal, state and local government web resources and services.